Weather past 2 weeks in Philipsburg, Netherlands Antilles, Sint Maarten

Now
81 °F

Passing clouds.


Feels Like: 85 °F
Forecast: 80 / 85 °F
Wind: 13 mph from East

Location: Juliana Airport - Saint Maarten

Current Time: Nov 24, 2014 at 9:55:45 PM

Latest Report: Nov 24, 2014 at 9:00 PM


Visibility: N/A

Pressure: 30.07 "Hg

Humidity: 79%

Dew point: 73 °F

Location of PhilipsburgLocation

Historic Weather in Philipsburg — Graph

°F

Philipsburg temperature yesterday

Maximum temperature yesterday: 84 °F (at 10:00 AM)
Minimum temperature yesterday: 79 °F (at 7:00 AM)
Average temperature yesterday: 82 °F

Past Weeks' High & Low Weather Summary

 TemperatureHumidityPressure
High86 °F (Nov 10, 11:00 AM)94% (Nov 22, 1:00 AM)30.09 "Hg (Nov 22, 1:00 AM)
Low75 °F (Nov 22, 1:00 AM)62% (Nov 12, 11:00 AM)29.86 "Hg (Nov 11, 3:00 PM)
Average82 °F74%29.97 "Hg
* Reported Nov 9 8:00 PM — Nov 24 8:00 PM, Philipsburg, Weather by CustomWeather, © 2014

Note: Actual official high and low records may vary slightly from our data, if they occured in-between our weather recording intervals... More about our weather records

Advertising

Philipsburg weather history for previous 24 hours

 ConditionsComfort  
Time TempWeatherWind HumidityBarometerVisibility
8:00 PM
Nov 24
81 °FPassing clouds.12 mph79%30.04 "HgN/A
7:00 PM77 °FScattered showers. Passing clouds.15 mph83%30.04 "HgN/A
6:00 PM81 °FScattered showers. Passing clouds.16 mph79%30.01 "HgN/A
5:00 PM82 °FPartly sunny.16 mph74%29.98 "HgN/A
4:00 PM82 °FPassing clouds.20 mph74%29.98 "HgN/A
3:00 PM82 °FScattered showers. Partly sunny.18 mph70%29.98 "HgN/A
2:00 PM84 °FScattered showers. Scattered clouds.18 mph66%30.01 "HgN/A
1:00 PM82 °FSprinkles. Scattered clouds.17 mph74%30.01 "Hg5 mi
12:00 PM84 °FScattered clouds.18 mph70%30.04 "Hg4 mi
11:00 AM84 °FScattered clouds.15 mph70%30.07 "HgN/A
10:00 AM82 °FPassing clouds.17 mph70%30.07 "HgN/A
9:00 AM81 °FPassing clouds.18 mph79%30.07 "HgN/A
8:00 AM81 °FScattered clouds.18 mph79%30.04 "HgN/A
7:00 AM81 °FScattered showers. Scattered clouds.12 mph74%30.01 "HgN/A
6:00 AM79 °FRain showers. Passing clouds.12 mph84%30.01 "Hg4 mi
5:00 AM81 °FPassing clouds.13 mph74%29.98 "HgN/A
4:00 AM81 °FPassing clouds.14 mph74%29.98 "HgN/A
3:00 AM81 °FPassing clouds.15 mph74%29.98 "HgN/A
2:00 AM81 °FPassing clouds.16 mph74%29.98 "HgN/A
1:00 AM81 °FPassing clouds.14 mph74%30.01 "HgN/A
12:00 AM81 °FPassing clouds.15 mph74%30.01 "HgN/A
11:00 PM
Nov 23
81 °FPassing clouds.17 mph74%30.04 "HgN/A
10:00 PM81 °FPassing clouds.13 mph74%30.04 "HgN/A
9:00 PM81 °FPassing clouds.16 mph79%30.01 "HgN/A
Weather by CustomWeather, © 2014

See weather overviewHow to use our weather pages